Wind_Speed
67 65 57 59 62 57 53 52 46 43 47 48 42 38 40 41 41 40 39 40 44 43 45 44 44 44 44 45 46 46 45 45
68 61 62 68 67 61 59 57 54 47 47 51 50 48 42 42 42 42 43 43 45 43 45 47 41 43 45 48 48 48 50 50
66 61 63 70 68 64 62 61 58 54 47 49 54 52 50 50 50 47 47 46 48 48 44 46 46 43 45 48 52 54 53 54
75 65 62 66 68 65 65 64 62 58 53 49 51 51 54 55 53 52 51 50 49 48 49 48 47 48 50 50 51 51 53 53
77 76 73 69 71 68 64 65 63 60 57 54 52 52 56 56 56 57 55 53 53 52 50 50 51 53 53 54 55 54 53 56
78 81 76 75 74 73 71 69 65 61 59 57 57 59 59 58 59 59 58 56 55 54 53 54 55 55 55 55 56 54 55 58
76 80 79 77 79 76 76 75 72 69 66 65 63 63 59 54 56 60 60 61 59 55 53 51 52 54 54 56 58 59 58 59
73 74 80 78 81 82 80 79 77 73 71 68 64 60 61 58 57 57 60 61 61 61 58 50 52 53 56 57 58 58 60 64
75 74 71 71 76 81 81 80 79 73 73 71 68 65 58 56 58 60 60 60 59 60 62 62 58 57 60 60 62 63 64 65
81 80 74 73 73 78 82 83 81 75 71 71 70 67 66 64 61 59 60 63 60 58 60 61 60 57 59 62 63 65 67 67
84 79 78 79 80 80 77 80 82 83 80 72 72 73 70 67 69 68 66 62 59 58 57 58 60 62 64 65 67 67 70 74
88 87 87 84 84 81 74 72 75 79 82 81 75 72 74 74 73 72 70 69 69 64 58 56 57 61 59 60 64 66 69 72
94 92 87 86 82 81 75 75 75 74 75 79 83 81 77 77 77 78 78 77 75 73 68 68 60 61 65 66 66 69 70 75
95 95 90 90 86 84 79 78 76 75 76 74 75 80 86 83 80 81 80 79 77 75 71 73 73 72 68 68 71 72 75 81
92 95 94 93 90 89 84 80 80 77 75 75 76 74 74 78 83 81 81 80 79 78 76 75 74 73 74 74 75 78 82 84
96 93 101 101 96 92 89 87 86 83 78 76 74 71 72 74 75 77 85 84 82 82 80 80 80 80 80 80 80 82 83 83
102 106 102 93 97 99 95 89 90 87 84 79 75 74 73 73 73 71 73 76 82 87 85 84 85 84 84 83 79 80 81 83
99 106 101 96 94 97 96 93 92 89 88 84 81 79 76 74 73 74 76 74 71 76 82 88 87 85 83 81 80 79 77 81
106 95 97 96 101 98 95 91 90 88 87 87 84 81 79 77 76 74 74 74 73 73 73 74 80 84 82 81 78 76 79 80
Wind_Direction
249 251 252 252 257 262 264 266 268 261 256 259 258 259 259 263 267 267 265 264 267 269 270 272 276 280 281 281 285 285 284 289
247 249 250 249 253 258 261 266 267 268 260 255 261 257 258 261 262 265 265 266 269 270 273 274 277 279 280 282 282 282 284 285
246 246 246 250 253 253 258 261 263 266 265 259 257 259 262 260 263 265 266 266 267 268 268 272 278 281 282 283 283 281 281 282
246 243 246 249 249 251 255 257 258 259 262 264 260 261 261 261 262 264 266 267 266 266 266 270 275 275 280 279 283 285 283 283
247 245 244 246 251 251 249 253 257 256 259 262 264 263 261 261 260 262 264 268 268 268 268 270 273 273 278 278 280 285 283 285
244 246 244 244 245 250 251 251 253 253 256 258 260 263 263 262 260 261 263 266 269 273 275 276 273 276 276 277 280 282 283 285
240 243 242 242 243 244 246 250 253 254 255 256 259 262 264 263 262 262 264 266 268 273 277 277 275 277 276 278 278 279 281 284
240 243 243 241 244 244 245 247 251 254 256 256 257 261 263 266 269 268 267 267 270 272 275 277 276 275 278 278 277 277 281 283
239 244 244 244 244 245 247 246 247 250 254 255 254 256 257 263 263 263 266 268 270 271 273 275 275 275 276 273 275 277 279 282
238 240 243 242 245 245 244 246 248 246 247 254 256 254 252 255 256 260 260 267 269 270 273 273 274 271 275 277 278 280 281 282
243 240 241 242 243 244 244 246 246 247 245 247 252 255 252 254 256 261 259 260 264 270 273 273 272 272 275 276 280 280 283 282
240 241 239 240 242 245 244 247 249 251 250 246 249 255 257 256 256 258 258 262 266 268 271 272 268 272 273 275 277 279 281 283
240 242 244 244 245 246 245 248 248 251 252 250 248 249 254 255 258 258 259 263 266 270 269 269 270 267 276 280 282 281 281 284
239 240 243 246 246 248 247 249 249 251 253 254 253 251 251 254 257 259 262 264 266 268 269 272 272 272 273 277 280 281 285 289
240 239 240 241 243 247 247 247 251 250 252 254 255 256 256 256 257 259 261 264 265 266 268 269 271 273 274 277 278 281 284 286
245 243 240 240 242 243 247 249 250 251 252 253 255 258 260 260 261 261 259 261 265 266 266 268 269 270 273 275 279 281 283 286
236 243 246 242 242 242 242 243 249 252 254 254 256 259 262 263 263 265 264 263 263 263 264 266 268 271 273 276 280 280 283 286
235 235 243 244 243 243 244 246 248 251 253 256 258 260 262 262 265 266 265 266 267 266 265 264 267 270 273 276 278 281 283 286
237 236 238 243 247 245 244 245 247 249 252 256 257 259 261 263 266 268 270 270 270 269 268 269 269 269 272 275 278 279 281 284
Height
10788 10794 10803 10800 10799 10807 10811 10812 10815 10818 10818 10822 10825 10827 10827 10828 10829 10829 10831 10831 10829 10832 10830 10829 10828 10827 10826 10825 10822 10817 10816 10813
10773 10790 10789 10785 10788 10798 10799 10802 10804 10809 10810 10813 10815 10818 10819 10819 10819 10821 10821 10822 10821 10822 10822 10819 10821 10818 10817 10816 10812 10810 10807 10805
10764 10777 10776 10772 10779 10786 10787 10792 10794 10797 10800 10803 10805 10807 10808 10808 10809 10812 10810 10812 10811 10811 10813 10812 10811 10811 10809 10808 10804 10801 10798 10795
10751 10763 10764 10763 10766 10773 10776 10779 10782 10786 10789 10791 10795 10797 10797 10798 10800 10800 10800 10800 10800 10801 10801 10803 10802 10801 10799 10798 10794 10791 10787 10784
10737 10743 10750 10751 10752 10757 10762 10765 10770 10775 10778 10781 10783 10785 10785 10786 10788 10789 10790 10790 10790 10791 10791 10792 10791 10790 10788 10786 10783 10781 10776 10772
10719 10721 10732 10737 10740 10742 10747 10752 10757 10761 10765 10770 10771 10772 10772 10774 10775 10776 10779 10779 10779 10780 10780 10780 10779 10778 10776 10774 10772 10769 10765 10762
10698 10701 10715 10720 10722 10729 10733 10736 10742 10748 10753 10757 10758 10758 10760 10763 10764 10765 10766 10768 10769 10770 10769 10768 10767 10765 10764 10762 10759 10757 10754 10750
10687 10686 10694 10708 10706 10710 10715 10721 10729 10735 10739 10743 10746 10746 10748 10752 10753 10754 10755 10757 10757 10758 10758 10756 10754 10753 10751 10749 10746 10743 10740 10737
10673 10669 10682 10688 10691 10693 10699 10705 10711 10720 10724 10728 10732 10736 10739 10741 10742 10741 10744 10744 10745 10745 10744 10744 10742 10741 10739 10736 10732 10729 10726 10722
10651 10654 10664 10671 10672 10674 10679 10688 10694 10702 10706 10712 10718 10721 10726 10729 10728 10729 10730 10731 10731 10731 10731 10731 10729 10728 10726 10723 10720 10716 10712 10708
10633 10643 10647 10647 10648 10652 10665 10675 10679 10683 10689 10697 10703 10705 10710 10712 10713 10715 10715 10716 10717 10718 10717 10716 10715 10714 10713 10709 10706 10702 10697 10692
10612 10614 10616 10624 10628 10639 10656 10659 10663 10667 10674 10683 10687 10691 10694 10696 10699 10700 10701 10702 10703 10704 10704 10703 10701 10700 10698 10694 10690 10687 10681 10676
10588 10596 10606 10609 10620 10627 10638 10641 10647 10651 10657 10663 10668 10674 10678 10680 10681 10685 10687 10688 10689 10688 10688 10688 10687 10685 10683 10679 10675 10671 10666 10660
10572 10577 10588 10591 10604 10610 10621 10626 10630 10634 10640 10644 10650 10656 10660 10662 10665 10668 10671 10672 10673 10672 10672 10672 10672 10670 10668 10664 10661 10657 10651 10645
10549 10560 10568 10572 10580 10585 10598 10608 10609 10617 10624 10627 10633 10639 10642 10647 10650 10653 10655 10655 10656 10656 10656 10657 10655 10654 10652 10650 10646 10641 10636 10629
10527 10537 10541 10545 10560 10567 10576 10586 10587 10596 10603 10609 10616 10623 10627 10631 10633 10636 10638 10639 10639 10638 10639 10640 10639 10638 10636 10634 10630 10625 10618 10612
10503 10503 10513 10533 10542 10544 10549 10561 10567 10578 10584 10593 10602 10606 10611 10614 10616 10619 10619 10620 10621 10621 10621 10622 10621 10620 10619 10616 10613 10606 10600 10595
10471 10485 10498 10510 10520 10527 10532 10545 10552 10563 10566 10575 10582 10587 10593 10597 10599 10601 10601 10603 10604 10601 10604 10603 10602 10601 10601 10598 10594 10589 10584 10579
10442 10466 10482 10492 10495 10504 10516 10529 10536 10544 10550 10558 10564 10569 10575 10579 10581 10583 10583 10585 10586 10583 10586 10584 10584 10584 10582 10579 10577 10573 10569 10563